Flag Weather past 2 weeks in Germantown, Maryland, U.S.A.

Now
36 °F

Overcast.


Feels Like: 36 °F
Forecast: 30 / 38 °F
Wind: No wind

Location: Frederick Municipal Airport

Current Time: Nov 27, 2014 at 1:02:50 AM

Latest Report: Nov 27, 2014 at 12:30 AM


Visibility: 7 mi

Pressure: 30.01 "Hg

Humidity: 87%

Dew point: 32 °F

Location of GermantownLocation

Historic Weather in Germantown — Graph

°F

Germantown temperature yesterday

Maximum temperature yesterday: 43 °F (at 3:05 AM)
Minimum temperature yesterday: 34 °F (at 8:10 PM)
Average temperature yesterday: 38 °F

Past Weeks' High & Low Weather Summary

 TemperatureHumidityPressure
High72 °F (Nov 24, 10:45 AM)94% (Nov 12, 4:05 AM)32.97 "Hg (Nov 12, 4:05 AM)
Low19 °F (Nov 22, 6:45 AM)18% (Nov 21, 12:55 PM)29.58 "Hg (Nov 17, 1:48 PM)
Average41 °F57%30.13 "Hg
* Reported Nov 11 11:05 PM — Nov 26 11:50 PM, Germantown, Weather by CustomWeather, © 2014

Note: Actual official high and low records may vary slightly from our data, if they occured in-between our weather recording intervals... More about our weather records

Advertising

Germantown weather history for previous 24 hours

 ConditionsComfort  
Time TempWeatherWind HumidityBarometerVisibility
11:50 PM
Nov 26
36 °FOvercast.No wind87%30.03 "Hg10 mi
11:30 PM36 °FMostly cloudy.No wind87%30.02 "Hg10 mi
11:10 PM36 °FMostly cloudy.3 mph87%30.03 "Hg10 mi
10:50 PM36 °FPartly cloudy.3 mph87%30.03 "Hg10 mi
10:30 PM36 °FPartly cloudy.5 mph87%30.02 "Hg10 mi
9:50 PM36 °FMostly cloudy.5 mph87%30.02 "Hg10 mi
9:30 PM34 °FFog.No wind93%30.00 "Hg5 mi
9:10 PM34 °FFog.No wind93%30.00 "Hg5 mi
8:50 PM36 °FOvercast.No wind87%29.99 "Hg7 mi
8:30 PM36 °FMostly cloudy.No wind87%30.00 "Hg10 mi
8:10 PM34 °FFog.3 mph93%29.99 "Hg5 mi
7:50 PM36 °FMostly cloudy.No wind87%29.99 "Hg10 mi
6:55 PM36 °FOvercast.No wind87%29.99 "Hg10 mi
5:45 PM36 °FLight rain. Mostly cloudy.No wind87%30.00 "Hg7 mi
4:45 PM36 °FLight rain. Mostly cloudy.No wind87%29.99 "Hg5 mi
3:45 PM36 °FLight rain. Cloudy.5 mph87%29.99 "Hg5 mi
2:45 PM36 °FSnow. Low clouds.6 mph87%29.98 "Hg2 mi
1:45 PM36 °FSnow. Low clouds.7 mph87%29.98 "Hg4 mi
12:45 PM36 °FLight snow. Low clouds.5 mph81%30.02 "Hg2 mi
11:45 AM36 °FLight snow. Low clouds.8 mph81%30.04 "Hg1 mi
10:55 AM36 °FLight snow. Low clouds.6 mph81%30.09 "Hg1 mi
9:45 AM37 °FSnow. Low clouds.No wind81%30.13 "Hg2 mi
8:50 AM39 °FRain. Low clouds.8 mph87%30.12 "Hg3 mi
8:08 AM39 °FRain. Low clouds.10 mph87%30.09 "Hg2 mi
7:47 AM41 °FRain. Mostly cloudy.7 mph81%30.13 "Hg2 mi
6:47 AM41 °FRain. Overcast.8 mph81%30.12 "Hg5 mi
5:30 AM41 °FRain. Overcast.9 mph70%30.12 "Hg10 mi
5:25 AM41 °FLight rain. Overcast.13 mph70%30.11 "Hg10 mi
5:05 AM43 °FLight rain. Mostly cloudy.9 mph66%30.12 "Hg10 mi
4:45 AM43 °FLight rain. Overcast.13 mph66%30.11 "Hg10 mi
4:25 AM43 °FLight rain. Overcast.12 mph66%30.12 "Hg10 mi
4:05 AM43 °FLight rain. Mostly cloudy.3 mph66%30.14 "Hg10 mi
3:45 AM43 °FDrizzle. Mostly cloudy.9 mph66%30.15 "Hg10 mi
3:25 AM43 °FOvercast.10 mph66%30.16 "Hg10 mi
3:05 AM43 °FOvercast.8 mph66%30.18 "Hg10 mi
2:45 AM41 °FOvercast.7 mph70%30.17 "Hg10 mi
2:25 AM41 °FOvercast.No wind70%30.15 "Hg10 mi
2:05 AM41 °FMostly cloudy.No wind70%30.17 "Hg10 mi
1:45 AM41 °FPassing clouds.No wind70%30.19 "Hg10 mi
1:25 AM41 °FPassing clouds.3 mph70%30.20 "Hg10 mi
1:05 AM41 °FClear.No wind70%30.18 "Hg10 mi
Weather by CustomWeather, © 2014

See weather overviewHow to use our weather pages